TimeEST,TemperatureF,Dew PointF,Humidity,Sea Level PressureIn,VisibilityMPH,Wind Direction,Wind SpeedMPH,Gust SpeedMPH,PrecipitationIn,Events,Conditions,WindDirDegrees,DateUTC
12:53 AM,32.0,30.0,92,30.23,8.0,NE,6.9,-,N/A,,Overcast,40,2013-01-15 05:53:00
1:53 AM,32.0,30.0,92,30.22,8.0,NE,5.8,-,N/A,,Overcast,50,2013-01-15 06:53:00
2:53 AM,32.0,30.0,92,30.23,6.0,NNE,5.8,-,N/A,,Overcast,20,2013-01-15 07:53:00
3:53 AM,32.0,30.0,92,30.23,6.0,NNE,10.4,-,N/A,,Overcast,30,2013-01-15 08:53:00
4:53 AM,30.9,30.0,96,30.23,5.0,NNE,8.1,-,N/A,,Overcast,30,2013-01-15 09:53:00
5:36 AM,30.2,30.2,100,30.21,2.5,NNE,10.4,-,0.00,,Overcast,30,2013-01-15 10:36:00
5:53 AM,30.9,30.0,96,30.25,3.0,NNE,5.8,-,0.00,,Overcast,20,2013-01-15 10:53:00
6:53 AM,32.0,30.0,92,30.26,4.0,NNE,9.2,-,0.00,,Overcast,20,2013-01-15 11:53:00
7:53 AM,32.0,30.0,92,30.27,10.0,NE,9.2,-,N/A,,Overcast,40,2013-01-15 12:53:00
8:53 AM,30.9,30.0,96,30.28,10.0,NE,6.9,-,N/A,,Overcast,50,2013-01-15 13:53:00
9:53 AM,32.0,30.0,92,30.27,9.0,ENE,5.8,-,N/A,,Overcast,60,2013-01-15 14:53:00
10:53 AM,32.0,30.9,96,30.22,10.0,NE,5.8,-,N/A,,Overcast,40,2013-01-15 15:53:00
11:53 AM,33.1,30.9,92,30.21,10.0,NE,4.6,-,N/A,,Overcast,50,2013-01-15 16:53:00
12:53 PM,33.1,30.9,92,30.15,6.0,NNE,8.1,-,N/A,,Overcast,30,2013-01-15 17:53:00
1:53 PM,32.0,30.9,96,30.12,4.0,ENE,8.1,-,N/A,,Overcast,60,2013-01-15 18:53:00
2:45 PM,32.0,30.2,93,30.08,3.0,NNE,6.9,-,0.00,,Overcast,30,2013-01-15 19:45:00
2:53 PM,32.0,30.9,96,30.09,3.0,NE,6.9,-,0.01,,Overcast,50,2013-01-15 19:53:00
3:30 PM,32.0,30.2,93,30.08,4.0,NE,5.8,-,0.02,,Overcast,40,2013-01-15 20:30:00
4:53 PM,32.0,30.9,96,30.12,5.0,NNE,8.1,-,0.07,,Overcast,20,2013-01-15 21:53:00
5:53 PM,32.0,30.9,96,30.14,5.0,NNE,8.1,-,0.08,,Overcast,20,2013-01-15 22:53:00
6:53 PM,32.0,30.0,92,30.13,6.0,NNE,11.5,16.1,0.06,,Overcast,20,2013-01-15 23:53:00
7:53 PM,32.0,30.9,96,30.10,10.0,ENE,6.9,-,0.06,,Overcast,60,2013-01-16 00:53:00
8:53 PM,32.0,30.9,96,30.09,7.0,NNE,5.8,-,0.04,,Overcast,30,2013-01-16 01:53:00
9:53 PM,33.1,30.9,92,30.08,7.0,NE,4.6,-,0.05,Rain,Rain,40,2013-01-16 02:53:00
10:53 PM,33.1,30.9,92,30.03,10.0,ENE,4.6,-,0.03,Rain,Light Rain,70,2013-01-16 03:53:00
11:19 PM,33.8,30.2,87,30.00,10.0,East,4.6,-,0.00,Rain,Light Rain,80,2013-01-16 04:19:00
11:53 PM,33.1,30.9,92,30.00,10.0,East,3.5,-,0.00,Rain,Light Rain,80,2013-01-16 04:53:00